Regional Weather Roundup
Issued by NWS

Home | Current Version | Previous Version | Graphics & Text | Print | Product List | Glossary On
Versions: 1 2 3 4 5 6 7 8 9 10 11 12 13 14 15 16 17 18 19 20 21 22 23 24 25 26 27 28 29 30 31 32 33 34 35 36 37 38 39 40 41 42 43 44 45 46 47 48 49 50
000
ASUS43 KFSD 201210
RWRSD

WEATHER ROUNDUP FOR SOUTH DAKOTA
NATIONAL WEATHER SERVICE SIOUX FALLS SD
700 AM CDT WED SEP 20 2017

NOTE: "FAIR" INDICATES FEW OR NO CLOUDS BELOW 12,000 FEET WITH NO
SIGNIFICANT WEATHER AND/OR OBSTRUCTIONS TO VISIBILITY.


SDZ001>005-009-010-012>017-201300-
NORTHWEST AND NORTH CENTRAL SOUTH DAKOTA

CITY           SKY/WX    TMP DP  RH WIND       PRES   REMARKS
BUFFALO          N/A     40  37  89 SW10      29.68R
MOBRIDGE       CLEAR     41  39  93 CALM      29.74R
$$

SDZ012>016-024>037-041>051-057-063-072>074-201300-
SOUTHWEST AND SOUTH CENTRAL SOUTH DAKOTA

CITY           SKY/WX    TMP DP  RH WIND       PRES   REMARKS
RAPID CTY ARPT CLEAR     37  30  75 VRB3      29.79
PIERRE         CLEAR     46  41  82 SW6       29.80R
CUSTER         CLEAR     34  28  79 W6        29.84R WCI  29
ELLSWORTH AFB  CLEAR     42  33  70 NE5       29.78R
PHILIP         CLEAR     39  38  96 CALM      29.80S
SPEARFISH      FAIR      48  30  49 SW14G24   29.78R
WINNER         FAIR      49  44  83 S7        29.84R
$$

SDZ004>011-016>023-039-040-201300-
NORTHEAST SOUTH DAKOTA

CITY           SKY/WX    TMP DP  RH WIND       PRES   REMARKS
ABERDEEN       PTCLDY    47  45  93 W9        29.74R
WATERTOWN      MOCLDY    52  49  89 W10       29.72R
BROOKINGS      CLEAR     52  50  93 NW12      29.74R
SISSETON         N/A     56  50  80 W18       29.68R
$$

SDZ017-020-022-023-036>040-048>070-201300-
SOUTHEAST SOUTH DAKOTA

CITY           SKY/WX    TMP DP  RH WIND       PRES   REMARKS
SIOUX FALLS    PTCLDY    55  53  93 NW7       29.76R
HURON          CLOUDY    52  49  89 W12       29.77R
CHAMBERLAIN    CLOUDY    51  50  99 SW5       29.82R
MITCHELL       CLEAR     52  49  89 W12       29.79R
YANKTON        CLEAR     53  51  93 NW9       29.78R
$$

ABBREVIATIONS USED IN REMARKS
   TC - TEMPERATURE IN CELSIUS
  WCI - WIND CHILL INDEX
   HX - HEAT INDEX
  VSB - VISIBILITY





USA.gov is the U.S. government's official web portal to all federal, state and local government web resources and services.